Tracking 20232 objects as of 21-Jan-2020
HD Live streaming from Space Station
objects crossing your sky now

DTUSAT-2

Track DTUSAT-2 now!
10-day predictions
DTUSAT-2 is classified as:


NORAD ID: 40030
Int'l Code: 2014-033W
Perigee: 600.1 km
Apogee: 618.5 km
Inclination: 97.9 °
Period: 96.7 minutes
Semi major axis: 6980 km
RCS: Unknown
Launch date: June 19, 2014
Source: Denmark (DEN)
Launch site: Orenburg, Russia (OREN)

Uplink (MHz): 1268.900
Downlink (MHz): 2401.835
Beacon (MHz): 2401.860
Mode: 9k6CPFSK/1k2 19k2 38k4MSK CW
Call sign: OZ2DTU
Status: Active

aabbcc
Your satellite tracking list
Your tracking list is empty




NASA's NSSDC Master Catalog

Two Line Element Set (TLE):
1 40030U 14033W   20021.27660489 +.00000154 +00000-0 +22569-4 0  9993
2 40030 097.9020 303.4188 0013204 065.4050 294.8541 14.88640911302968
Source of the keplerian elements: AMSAT